NOAA NWS Hourly Roundups by Site

Regional Weather Roundup for Seattle, WA

To Select Another Site Choose from List

Select Site:  

000
ASUS46 KSEW 220210
RWRWA

WASHINGTON REGIONAL WEATHER ROUNDUP
NATIONAL WEATHER SERVICE SEATTLE WA
700 PM PDT SUN JUL 21 2019

NOTE:"FAIR" INDICATES FEW OR NO CLOUDS BELOW 12,000 FEET WITH NO
SIGNIFICANT WEATHER AND/OR OBSTRUCTIONS TO VISIBILITY.

WAZ507-509-555>559-220300-
SEATTLE, TACOMA, EVERETT, AND VICINITY

CITY           SKY/WX    TMP DP  RH WIND       PRES   REMARKS
EVERETT        SUNNY     73  49  42 N8        29.94F
BOEING FIELD   MOSUNNY   81  46  29 NW8       29.90S
RENTON         MOSUNNY   83  55  38 NW9       29.89S
SEATAC AIRPORT MOSUNNY   86  42  21 N9        29.92S
JBLM-MCCHORD   SUNNY     89  51  27 NW7       29.90F
PUYALLUP       FAIR      88  37  16 CALM      29.92S
BREMERTON      SUNNY     84  51  31 NE9       29.91F
JBLM-FT LEWIS  SUNNY     89  51  27 W7        29.90S
TACOMA NARROWS SUNNY     78  49  35 NE10      29.90F
$$

WAZ001-503-506-510-514-515-220300-
NORTH INTERIOR

CITY           SKY/WX    TMP DP  RH WIND       PRES   REMARKS
BELLINGHAM     SUNNY     82  54  37 W6        29.91F
FRIDAY HARBOR  SUNNY     72  48  42 VRB3      29.93F
EASTSOUND      SUNNY     75  57  53 CALM      29.91F
PORT ANGELES   SUNNY     70  46  42 W9        29.96F
EDIZ HOOK      FAIR      64  44  47 W22G29    29.95S
PORT TOWNSEND  FAIR      72  50  46 NW14      29.92F
NAS WHIDBEY    MOSUNNY   64  52  64 W6        29.98F
ARLINGTON        N/A     78  53  41 NW16      29.91F
BURLINGTON     SUNNY     79  54  41 S5        29.92F
$$

WAZ020-022-039-040-504-511-512-220300-
SOUTHWEST INTERIOR

CITY           SKY/WX    TMP DP  RH WIND       PRES   REMARKS
SHELTON        SUNNY     82  50  32 SW17      29.90S
OLYMPIA        SUNNY     83  52  34 NW12      29.91S
CHEHALIS       FAIR      81  57  44 NW9       29.92S
KELSO          SUNNY     76  59  55 VRB7      29.94R
VANCOUVER      SUNNY     86  56  35 N9        29.88S
SCAPPOOSE, OR  SUNNY     82  58  43 NW12G20   29.88S
PORTLAND, OR   SUNNY     87  57  35 NW9       29.88S
$$

WAZ021-516-517-220300-
WASHINGTON COAST

CITY           SKY/WX    TMP DP  RH WIND       PRES   REMARKS
FORKS          SUNNY     67  48  50 W10       29.98F
HOQUIAM        SUNNY     68  53  58 W10       29.98F
ASTORIA, OR    SUNNY     66  54  65 NW12      29.99F
$$

WAZ019-023-024-040-567>569-220300-
CASCADE MOUNTAINS AND COLUMBIA GORGE

CITY           SKY/WX    TMP DP  RH WIND       PRES   REMARKS
STAMPEDE PASS  SUNNY     74  39  28 VRB5      30.08F
TROUTDALE, OR  SUNNY     89  51  27 CALM      29.87S
HOOD RIVER, OR CLEAR     86  46  25 NW3       29.86F
THE DALLES, OR SUNNY     94  42  16 E7        29.82F HX  90
$$

WAZ026-027-041>044-520-521-220300-
EAST SLOPES

CITY           SKY/WX    TMP DP  RH WIND       PRES   REMARKS
OMAK           SUNNY     88  38  17 SW6       29.95F
WENATCHEE      SUNNY     87  38  17 SE12      29.92F
ELLENSBURG     SUNNY     88  41  19 S8        29.95F
YAKIMA         SUNNY     87  44  22 S6        29.92F
SUNNYSIDE ARPT CLEAR     87  49  26 NW7       29.89
YAKIMA TC      FAIR      88  34  14 E7        29.91F
$$

WAZ028-034-035-220300-
COLUMBIA BASIN

CITY           SKY/WX    TMP DP  RH WIND       PRES   REMARKS
EPHRATA        SUNNY     89  36  15 W7        29.92F
MOSES LAKE     SUNNY     93  37  14 VRB7      29.92F
PASCO          SUNNY     90  52  27 NW8       29.85F
RICHLAND ARPT  CLEAR     93  42  16 NW9       29.85
HERMISTON, OR  SUNNY     93  40  15 N5        29.85F
$$

WAZ036>038-220300-
NORTHEAST WASHINGTON

CITY           SKY/WX    TMP DP  RH WIND       PRES   REMARKS
SPOKANE GEIGER MOSUNNY   86  37  17 NE8       30.00F
SPOKANE FELTS  SUNNY     88  35  15 E3        29.98F
FAIRCHILD AFB  SUNNY     83  35  18 NE6       30.01F
COEURDALENE,ID SUNNY     85  42  22 N5        30.01F
DEER PARK      SUNNY     85  39  19 CALM      30.00F
$$

WAZ029>033-220300-
SOUTHEAST WASHINGTON

CITY           SKY/WX    TMP DP  RH WIND       PRES   REMARKS
PULLMAN        SUNNY     85  37  18 NE5       30.01F
LEWISTON, ID   SUNNY     92  32  12 NE6       29.91F
WALLA WALLA    SUNNY     94  33  11 N13       29.87F
PENDLETON, OR  SUNNY     90  37  15 N9        29.89F
$$


 

View Past Reports for Seattle, WA.

Products Courtesy of NOAA-NWS
NWS Information Parsing Script by Ken True at Saratoga Weather - Script by SE Lincoln Weather.